Wind_Speed
30 31 31 31 31 31 30 30 30 29 28 27 27 27 26 26 26 27 29 28 28 29 29 30 30 30 30 31 31 31 31 31 30 30 30 30 30 30 30 30 30 31 32
29 30 31 32 33 33 32 31 31 31 30 29 29 29 29 30 30 29 30 30 30 30 31 31 31 32 33 32 31 30 30 31 32 32 30 31 32 33 32 31 31 32 33
28 30 31 32 34 34 33 32 32 31 31 31 32 32 31 30 30 30 31 31 31 32 32 33 33 33 32 31 30 30 31 31 31 32 32 32 33 34 33 33 34 34 34
27 28 29 31 32 33 33 33 33 33 32 32 33 32 31 30 30 30 30 32 33 34 34 34 33 32 31 31 32 33 34 34 34 34 34 34 34 34 34 35 36 37 37
25 26 28 29 30 31 32 33 33 33 33 33 32 32 32 31 31 31 31 33 33 34 33 32 32 32 33 33 33 34 34 35 35 36 36 36 35 36 37 37 37 38 39
24 25 26 28 29 30 31 31 31 32 32 32 31 32 32 32 32 32 32 33 33 33 32 31 31 32 33 33 34 35 35 36 37 37 37 37 37 37 38 39 40 40 41
24 25 26 28 29 29 29 30 30 31 31 31 31 31 31 32 31 31 32 34 33 34 34 33 32 33 35 35 35 36 36 36 37 38 38 38 39 40 40 41 41 42 42
24 25 25 26 27 29 29 29 30 31 30 30 30 30 31 31 30 30 30 32 32 32 32 33 32 32 32 33 34 35 36 37 38 39 40 41 41 42 43 43 43 43 44
24 24 24 25 26 27 28 29 30 30 30 30 30 30 30 31 31 31 30 30 30 30 30 30 31 31 32 32 33 34 36 38 39 40 41 41 42 42 42 42 43 44 45
22 22 23 24 25 25 26 28 29 30 30 30 30 30 31 31 30 29 28 29 29 29 30 30 31 32 33 33 34 35 35 37 38 39 40 41 41 41 41 41 42 43 44
20 21 22 23 24 25 26 27 29 29 30 31 31 32 31 30 29 29 29 30 29 29 30 32 32 33 33 33 34 34 35 36 37 38 39 40 40 40 40 40 41 42 43
19 20 21 23 24 25 26 27 28 28 28 29 29 29 29 29 29 29 29 29 28 29 30 31 32 32 32 32 34 35 35 36 37 38 38 39 38 38 39 40 41 41 41
19 20 21 22 23 25 25 25 26 26 26 26 27 27 27 27 27 27 28 28 28 29 29 29 29 30 31 32 33 33 34 35 35 36 36 36 37 37 38 38 38 39 39
20 20 21 22 23 23 24 24 24 24 24 24 24 24 24 25 25 26 27 27 27 27 27 28 29 30 31 31 32 33 33 34 34 34 34 35 35 35 35 35 35 36 36
20 21 22 22 21 21 22 22 21 22 22 22 22 22 23 23 24 24 25 25 25 25 26 26 27 28 29 30 31 31 31 31 31 31 32 32 32 32 32 32 32 32 32
21 21 21 21 21 20 21 21 19 19 20 20 20 20 21 21 21 21 21 22 23 24 24 25 26 26 27 27 27 28 28 28 29 30 30 30 30 30 30 31 31 31 30
20 20 21 21 19 19 19 19 19 18 17 17 18 18 19 19 19 19 20 21 22 22 23 23 24 25 25 25 25 25 26 26 27 27 28 28 28 28 28 27 27 27 27
18 18 18 18 17 18 19 18 17 17 16 16 16 15 15 16 17 18 18 18 18 19 20 21 22 22 23 23 23 24 24 24 24 24 24 24 25 25 25 25 24 24 24
17 16 16 16 16 16 16 16 16 15 14 14 14 14 15 15 15 15 15 16 17 18 18 19 19 20 20 20 21 21 21 21 21 21 21 21 21 22 22 22 22 22 22
14 13 13 13 13 14 14 14 13 12 12 13 13 13 13 14 14 14 14 15 16 16 17 17 17 18 19 19 20 20 19 19 19 19 19 19 19 20 20 19 19 19 19
12 11 11 10 10 11 11 12 12 11 12 12 12 13 13 13 13 13 14 14 15 15 15 16 16 17 17 17 17 17 17 17 17 17 18 17 17 18 17 17 16 16 16
10 10 9 9 9 10 9 9 9 10 10 10 11 11 11 12 12 12 12 13 13 14 14 14 15 15 15 16 16 15 15 15 15 15 15 15 15 15 14 14 14 13 12
9 8 8 8 8 8 8 8 7 8 8 8 9 9 10 10 10 11 11 12 12 12 12 13 13 13 13 14 14 14 13 13 13 13 13 13 12 12 12 11 10 9 8
7 7 7 7 7 8 8 7 7 7 7 6 7 7 8 8 9 10 10 10 10 10 10 11 11 11 11 11 11 11 10 10 10 11 11 11 11 10 9 8 7 6 6
6 6 5 5 6 6 6 6 6 5 5 6 6 7 7 7 8 8 8 8 8 8 8 9 9 9 9 9 9 9 10 10 10 9 9 9 8 7 7 7 6 5 4
6 5 4 4 4 4 4 4 3 3 4 5 5 6 6 6 6 6 6 6 6 7 7 7 7 7 7 7 7 8 8 8 7 7 7 7 6 6 6 5 4 3 3
Wind_Direction
244 244 246 248 250 254 258 262 265 268 269 268 268 267 267 266 264 259 260 259 257 254 253 254 254 253 253 253 256 257 256 256 257 259 261 263 263 264 266 269 271 272 273
244 245 246 248 251 254 258 261 263 265 267 269 271 269 269 266 265 264 261 259 257 254 254 254 254 254 254 255 257 256 257 257 258 260 262 265 266 266 268 271 272 274 276
247 248 248 250 253 255 258 260 263 266 267 268 271 271 270 268 264 264 259 257 257 256 254 256 256 257 255 254 255 256 257 258 261 263 265 267 268 269 271 273 274 275 276
247 249 249 252 254 255 257 259 262 264 266 269 270 270 268 269 267 262 259 256 255 256 255 256 259 257 255 256 257 259 258 260 262 264 266 268 269 269 270 272 274 275 276
250 250 251 253 255 256 257 259 261 263 264 268 269 268 266 268 267 262 259 257 256 256 256 256 258 257 256 258 257 258 259 262 263 265 267 268 269 270 271 272 273 274 276
254 252 252 253 256 257 257 260 262 263 264 266 268 267 266 266 265 261 260 259 257 256 257 261 261 260 258 257 258 258 261 263 264 265 266 268 270 272 272 274 274 275 276
258 257 256 256 258 259 259 260 262 263 264 266 265 264 266 264 265 264 260 260 260 259 258 260 260 259 258 258 259 260 261 263 265 266 268 270 270 272 274 275 275 276 277
261 260 258 258 260 260 262 262 263 263 265 266 266 266 267 266 266 265 265 261 259 260 259 261 260 259 258 258 259 260 261 264 266 268 270 271 272 273 273 274 274 275 277
262 260 260 260 262 264 263 263 264 265 265 265 265 265 266 266 265 264 264 263 262 262 261 260 259 260 261 262 263 264 265 266 267 268 270 272 273 274 274 274 276 277 277
268 263 262 260 261 263 264 264 263 263 263 264 265 264 265 265 263 262 262 261 261 261 260 261 262 264 264 264 265 266 267 269 270 270 271 273 274 274 275 276 277 278 279
267 267 266 264 264 265 266 266 266 265 263 263 263 264 262 260 260 260 260 259 260 259 259 262 263 265 266 266 267 268 269 270 271 272 273 273 274 275 277 278 279 279 280
269 268 268 268 267 267 268 268 265 264 264 262 263 264 261 258 257 258 257 257 256 257 260 263 264 265 267 268 269 269 269 271 272 273 274 275 275 277 278 279 280 281 281
275 274 273 272 270 268 268 267 265 263 263 263 265 264 262 259 258 257 257 256 258 260 263 264 264 266 268 269 269 270 270 272 273 274 275 276 277 279 280 280 281 281 281
278 278 276 274 270 269 269 269 266 264 262 263 264 262 260 258 259 259 258 260 260 261 263 264 267 268 270 271 273 273 274 274 274 275 275 276 278 280 281 281 281 282 282
279 278 277 276 273 270 269 269 267 266 262 261 259 258 259 257 257 258 258 260 261 263 266 269 270 270 272 274 274 275 275 276 275 275 276 278 280 281 281 281 282 284 285
280 278 277 276 276 273 270 269 267 266 264 260 258 258 259 258 258 258 258 261 264 266 269 269 270 272 274 275 275 277 278 278 278 277 277 278 281 283 284 284 284 285 286
281 278 275 276 274 270 268 272 271 269 265 260 258 257 258 258 258 260 261 264 266 268 269 270 273 274 274 275 277 279 280 280 280 279 279 281 282 282 284 285 286 286 287
284 281 277 275 273 271 271 272 271 270 265 261 259 258 259 262 263 263 265 266 267 270 272 274 275 276 276 277 278 280 281 282 282 282 282 283 284 285 285 286 287 289 289
285 284 280 277 274 275 275 270 269 268 264 262 262 263 263 264 266 268 271 270 272 273 274 275 276 277 277 279 281 283 284 283 284 285 284 286 287 288 288 289 290 290 292
290 286 285 281 277 273 270 265 265 266 266 266 265 266 268 270 272 273 274 275 276 276 278 281 280 280 280 281 281 283 284 284 285 287 289 290 291 292 293 292 293 293 295
294 290 285 283 280 277 272 265 262 267 270 270 270 270 273 275 276 277 277 279 278 278 281 283 282 281 282 282 284 285 286 287 288 291 293 295 297 297 296 295 294 294 294
297 291 288 284 280 278 275 273 270 271 272 271 274 277 279 279 280 282 284 284 283 283 285 285 285 284 285 285 286 287 288 289 292 295 297 298 300 300 299 298 296 295 295
300 294 287 284 281 282 283 280 279 279 276 274 277 281 282 282 285 288 290 292 290 289 289 288 287 286 286 287 288 288 288 290 293 297 298 301 304 304 303 301 300 299 299
311 303 294 287 287 286 288 290 285 283 276 277 281 281 283 283 287 294 296 295 294 292 291 291 291 291 289 289 290 290 291 293 297 301 301 303 304 305 306 304 301 300 300
322 316 307 298 294 289 287 289 290 288 283 283 287 290 293 296 299 301 303 303 301 300 298 297 297 296 295 295 296 295 295 296 298 300 302 303 304 305 307 307 303 301 297
344 342 335 325 315 307 301 297 300 294 296 295 295 298 303 304 304 307 311 312 312 311 310 308 306 305 305 306 306 304 302 301 302 303 304 306 307 308 308 307 303 299 294
Height
5828 5829 5831 5832 5834 5835 5836 5836 5837 5837 5837 5837 5837 5837 5837 5836 5836 5836 5836 5836 5837 5838 5839 5840 5840 5841 5843 5844 5844 5845 5845 5846 5846 5846 5847 5847 5846 5847 5847 5846 5845 5844 5843
5822 5823 5825 5826 5827 5828 5829 5830 5830 5830 5831 5831 5831 5830 5829 5829 5829 5829 5829 5829 5830 5831 5832 5833 5834 5835 5836 5837 5838 5838 5839 5839 5839 5839 5839 5840 5841 5840 5839 5839 5838 5837 5836
5815 5817 5818 5819 5820 5821 5822 5823 5824 5824 5824 5824 5823 5822 5822 5821 5821 5822 5822 5822 5823 5824 5825 5826 5827 5828 5829 5829 5830 5831 5831 5832 5832 5832 5833 5833 5833 5832 5832 5831 5830 5829 5828
5809 5810 5811 5813 5813 5814 5815 5816 5816 5816 5816 5816 5816 5815 5815 5815 5815 5815 5815 5815 5816 5817 5818 5819 5819 5820 5821 5822 5822 5823 5824 5824 5825 5825 5825 5825 5825 5824 5824 5823 5822 5821 5820
5803 5804 5805 5806 5806 5807 5808 5808 5809 5809 5809 5809 5808 5808 5807 5807 5808 5807 5807 5807 5808 5808 5809 5810 5811 5812 5813 5814 5814 5815 5816 5816 5817 5817 5817 5816 5816 5815 5815 5814 5813 5812 5811
5797 5797 5798 5799 5799 5800 5801 5801 5801 5801 5801 5801 5801 5800 5800 5800 5800 5800 5800 5800 5800 5801 5802 5802 5803 5804 5804 5805 5806 5807 5808 5808 5808 5808 5808 5808 5807 5806 5805 5804 5803 5802 5801
5790 5791 5791 5792 5792 5792 5792 5793 5793 5793 5793 5793 5792 5792 5792 5792 5792 5792 5792 5792 5792 5793 5794 5794 5795 5795 5796 5797 5797 5798 5799 5799 5799 5799 5799 5798 5797 5797 5795 5794 5793 5792 5790
5784 5784 5784 5784 5784 5784 5784 5785 5785 5785 5785 5785 5784 5784 5784 5784 5784 5784 5784 5784 5784 5785 5785 5786 5787 5787 5787 5788 5788 5789 5789 5789 5789 5789 5789 5788 5787 5786 5785 5784 5783 5781 5779
5777 5777 5777 5777 5777 5777 5777 5777 5777 5777 5777 5777 5777 5776 5776 5776 5776 5776 5776 5776 5777 5777 5777 5778 5779 5779 5779 5780 5779 5779 5779 5779 5779 5779 5778 5777 5777 5776 5775 5773 5772 5771 5768
5770 5770 5770 5769 5770 5770 5769 5769 5768 5768 5769 5769 5769 5769 5769 5768 5768 5768 5768 5768 5768 5769 5770 5770 5771 5771 5771 5771 5771 5770 5770 5770 5769 5769 5768 5767 5766 5765 5764 5762 5761 5759 5757
5764 5764 5763 5763 5762 5762 5761 5761 5760 5760 5760 5760 5760 5760 5760 5760 5760 5760 5760 5761 5761 5762 5762 5762 5762 5762 5762 5762 5762 5761 5761 5760 5759 5758 5757 5756 5755 5754 5753 5751 5750 5748 5746
5758 5757 5756 5755 5755 5754 5753 5752 5752 5752 5752 5752 5752 5752 5751 5751 5752 5752 5752 5753 5753 5754 5754 5754 5754 5754 5754 5753 5753 5752 5751 5750 5749 5748 5747 5746 5745 5744 5742 5741 5739 5737 5735
5752 5750 5749 5748 5747 5747 5746 5745 5744 5744 5744 5744 5744 5744 5744 5743 5744 5744 5745 5745 5746 5746 5746 5746 5746 5746 5745 5745 5744 5743 5741 5740 5739 5738 5737 5736 5735 5733 5732 5730 5728 5726 5724
5746 5744 5743 5742 5741 5739 5739 5738 5737 5737 5736 5736 5736 5736 5736 5736 5736 5737 5737 5738 5738 5738 5738 5738 5738 5737 5737 5736 5735 5734 5732 5731 5730 5729 5728 5727 5726 5724 5722 5720 5718 5716 5714
5740 5738 5737 5735 5734 5732 5732 5731 5730 5729 5729 5729 5729 5728 5728 5729 5729 5729 5730 5730 5730 5731 5731 5730 5730 5729 5728 5727 5726 5725 5723 5722 5721 5720 5719 5718 5716 5715 5713 5711 5709 5707 5705
5734 5732 5731 5729 5727 5726 5725 5725 5724 5723 5723 5723 5722 5722 5722 5722 5723 5723 5723 5723 5723 5723 5723 5723 5722 5722 5721 5719 5718 5716 5715 5714 5713 5712 5710 5709 5708 5706 5704 5703 5700 5698 5696
5728 5726 5724 5723 5722 5720 5719 5719 5718 5718 5717 5717 5717 5717 5717 5717 5717 5717 5717 5717 5717 5717 5717 5716 5715 5714 5713 5712 5711 5709 5708 5707 5705 5704 5703 5701 5699 5698 5696 5694 5692 5690 5688
5721 5719 5718 5717 5716 5715 5714 5713 5713 5713 5712 5712 5712 5712 5712 5712 5712 5712 5712 5711 5711 5711 5710 5710 5708 5707 5706 5705 5704 5703 5701 5700 5698 5697 5696 5694 5692 5691 5689 5687 5685 5683 5681
5716 5714 5713 5712 5711 5710 5709 5709 5708 5708 5707 5707 5708 5708 5707 5707 5707 5707 5706 5706 5706 5705 5705 5704 5703 5702 5701 5700 5698 5697 5695 5694 5693 5691 5689 5688 5686 5684 5682 5681 5679 5677 5675
5711 5710 5709 5707 5706 5706 5705 5705 5704 5704 5704 5703 5703 5703 5703 5703 5703 5702 5702 5702 5701 5701 5700 5699 5698 5697 5695 5694 5693 5692 5690 5689 5687 5686 5684 5682 5680 5678 5676 5675 5674 5672 5670
5708 5706 5705 5704 5703 5702 5702 5701 5701 5700 5700 5700 5699 5699 5699 5699 5699 5698 5698 5697 5697 5696 5695 5694 5693 5692 5691 5690 5688 5687 5686 5684 5682 5681 5679 5677 5675 5673 5671 5670 5669 5667 5666
5705 5703 5702 5701 5700 5699 5699 5698 5697 5697 5697 5696 5696 5696 5696 5695 5695 5695 5694 5694 5693 5692 5691 5690 5688 5687 5686 5685 5684 5683 5681 5680 5678 5677 5675 5673 5671 5669 5668 5666 5665 5663 5662
5702 5701 5700 5699 5698 5697 5696 5696 5695 5695 5694 5694 5694 5693 5693 5693 5692 5692 5691 5690 5689 5688 5687 5686 5684 5683 5682 5681 5680 5679 5677 5676 5675 5673 5671 5670 5668 5666 5665 5663 5661 5660 5659
5700 5698 5697 5696 5696 5695 5694 5694 5693 5693 5692 5692 5692 5691 5691 5691 5690 5689 5688 5687 5686 5685 5684 5683 5681 5680 5679 5677 5676 5675 5674 5673 5671 5670 5668 5667 5665 5663 5661 5660 5659 5658 5657
5698 5697 5696 5695 5694 5693 5692 5692 5691 5691 5691 5690 5690 5690 5689 5689 5688 5687 5686 5685 5684 5682 5681 5680 5678 5677 5676 5675 5674 5672 5671 5670 5668 5667 5666 5664 5662 5661 5659 5658 5657 5656 5655
5697 5695 5694 5693 5692 5691 5691 5690 5690 5690 5689 5689 5689 5688 5687 5686 5686 5685 5684 5682 5681 5680 5679 5678 5676 5675 5674 5673 5671 5670 5669 5667 5666 5665 5663 5662 5660 5659 5657 5656 5655 5655 5654